Location: Luxembourg
(49.6117°N, 6.1300°E)
Time: 20:26:47
(UTC+01:00)

ISS - Visible Passes

Search period start: 03 December 2021 00:00
Search period end: 13 December 2021 00:00
Orbit: 417 x 423 km, 51.6° (Epoch: 03 December)

Date Brightness Start Highest point End Pass type
(mag) Time Alt. Az. Time Alt. Az. Time Alt. Az.
03 Dec -3.6 17:09:35 10° WNW 17:12:58 62° N 17:16:21 10° E visible
03 Dec -3.4 18:46:28 10° WNW 18:49:50 58° SSW 18:50:08 54° S visible
04 Dec -3.7 17:59:12 10° WNW 18:02:37 78° SSW 18:05:09 17° ESE visible
04 Dec -1.0 19:36:32 10° W 19:38:09 18° WSW 19:38:09 18° WSW visible
05 Dec -3.8 17:11:57 10° WNW 17:15:22 83° NNE 17:18:45 10° ESE visible
05 Dec -1.9 18:49:00 10° W 18:51:58 28° SW 18:53:21 21° S visible
06 Dec -2.4 18:01:36 10° W 18:04:49 40° SSW 18:08:02 10° SE visible
07 Dec -3.0 17:14:18 10° WNW 17:17:39 57° SSW 17:20:59 10° SE visible
07 Dec -0.7 18:52:17 10° WSW 18:53:55 13° SW 18:55:31 10° SSW visible
08 Dec -0.9 18:04:22 10° W 18:06:52 19° SW 18:09:21 10° S visible
09 Dec -1.4 17:16:49 10° W 17:19:46 27° SW 17:22:43 10° SSE visible
11 Dec -0.3 17:20:10 10° WSW 17:21:43 13° SW 17:23:16 10° SSW visible
